Погода в Ипьялесе

Колумбия     0°49′23″N   77°38′23″W
темп.,
°C
ветер,
м/с
пор.,
м/с
влажн.,
%
обл.,
%
осадки,
мм/ч
давл.,
гПа
погр.,
м
17 мая, пн
пн1701:00+6ю019837 0.1 102127
04:00+5юз019648 0.0 101911
07:00+7ююз01936 0.0 102048
10:00+13вюв327448 0.4 1018901
13:00+13юв437981 3.0 1016948
16:00+10юв339059 1.9 1016353
19:00+8вюв239695 2.4 1020180
22:00+8вюв129589 0.1 1021116
18 мая, вт
вт1801:00+7юв2397100 1.3 102088
04:00+7ссз1196100 13.5 1020109
07:00+7всв1297100 15.8 1022113
10:00+8вюв2395100 0.3 1022360
13:00+8юв2293100 0.7 1020340
16:00+8вюв2294100 0.2 1018222
19:00+7ю1192100 0.2 102013
22:00+6ю1189100 0.0 102212
19 мая, ср
ср1901:00+5юв119376 0.0 102215
04:00+6ю019398 0.0 102023
07:00+7вюв1290100 0.0 102169
10:00+13юв337070 0.0 1018864
13:00+14юв436885 0.1 10151224
16:00+12юв337581 0.3 1014889
19:00+7юв229656 0.3 101828
22:00+7вюв229269 0.0 102179
20 мая, чт
чт2001:00+6юв019557 0.0 101931
04:00+6в119762 0.0 101857
07:00+8вюв239597 0.1 1019294
10:00+11юв347872 0.1 1018832
13:00+13юв447491 0.9 10151067
16:00+12юв447965 0.9 1014817
19:00+7юв229714 1.2 101845
22:00+7юв129794 0.0 1021110
21 мая, пт
пт2101:00+7юв129365 0.0 1019159
04:00+6вюв229350 0.0 101834
07:00+7юв239354 0.0 1019206
10:00+11вюв338155 0.1 1019673
13:00+15юв446746 0.4 10141258
16:00+14вюв436966 0.3 10121088
19:00+7юв11948 0.5 101713
22:00+6юв119819 0.0 102113